| time (UTC) | temp C | wind direction | speed KPH | gust KPH | rain 1hr cm | rain 24hr cm | rain mn cm | humidity % | barometer mb |
| 20260506180321 | 17 | 155 | 1.6 | 6.4 | 0.00 | 0.00 | 0.00 | 70 | 1020.5 |
| 20260506175332 | 18 | 257 | 4.8 | 11.3 | 0.00 | 0.00 | 0.00 | 68 | 1020.5 |
| 20260506174345 | 18 | 221 | 1.6 | 8.0 | 0.00 | 0.00 | 0.00 | 69 | 1020.5 |
| 20260506173322 | 17 | 249 | 6.4 | 12.9 | 0.00 | 0.00 | 0.00 | 68 | 1020.6 |
| 20260506172335 | 17 | 230 | 3.2 | 9.7 | 0.00 | 0.00 | 0.00 | 69 | 1020.6 |
| 20260506171333 | 17 | 235 | 4.8 | 11.3 | 0.00 | 0.00 | 0.00 | 69 | 1020.5 |
| 20260506170342 | 16 | 248 | 6.4 | 11.3 | 0.00 | 0.00 | 0.00 | 70 | 1020.7 |
| 20260506165329 | 16 | 255 | 6.4 | 12.9 | 0.00 | 0.00 | 0.00 | 71 | 1020.7 |
| 20260506164333 | 16 | 257 | 6.4 | 12.9 | 0.00 | 0.00 | 0.00 | 71 | 1020.7 |
| 20260506163336 | 15 | 221 | 6.4 | 11.3 | 0.00 | 0.00 | 0.00 | 71 | 1020.7 |
| 20260506162333 | 15 | 251 | 8.0 | 14.5 | 0.00 | 0.00 | 0.00 | 71 | 1020.7 |
| 20260506161333 | 15 | 220 | 6.4 | 12.9 | 0.00 | 0.00 | 0.00 | 72 | 1020.7 |
| 20260506160315 | 14 | 254 | 4.8 | 14.5 | 0.00 | 0.00 | 0.00 | 71 | 1020.7 |
| 20260506155323 | 14 | 249 | 6.4 | 12.9 | 0.00 | 0.00 | 0.00 | 71 | 1020.8 |
| 20260506154348 | 13 | 252 | 4.8 | 12.9 | 0.00 | 0.00 | 0.00 | 71 | 1020.7 |
| 20260506153314 | 13 | 258 | 8.0 | 14.5 | 0.00 | 0.00 | 0.00 | 71 | 1020.6 |
| 20260506152323 | 13 | 259 | 9.7 | 16.1 | 0.00 | 0.00 | 0.00 | 71 | 1020.7 |
| 20260506151326 | 13 | 258 | 6.4 | 17.7 | 0.00 | 0.00 | 0.00 | 71 | 1020.6 |
| 20260506150354 | 13 | 273 | 4.8 | 12.9 | 0.00 | 0.00 | 0.00 | 71 | 1020.6 |
| 20260506145340 | 12 | 261 | 8.0 | 14.5 | 0.00 | 0.00 | 0.00 | 71 | 1020.6 |
| 20260506144325 | 12 | 244 | 8.0 | 12.9 | 0.00 | 0.00 | 0.00 | 72 | 1020.6 |
| 20260506142333 | 12 | 267 | 6.4 | 12.9 | 0.00 | 0.00 | 0.00 | 73 | 1020.4 |
| 20260506141405 | 12 | 254 | 4.8 | 14.5 | 0.00 | 0.00 | 0.00 | 74 | 1020.3 |
| 20260506140318 | 12 | 291 | 1.6 | 12.9 | 0.00 | 0.00 | 0.00 | 74 | 1020.3 |
| 20260506135323 | 12 | 266 | 3.2 | 8.0 | 0.00 | 0.00 | 0.00 | 74 | 1020.2 |
| 20260506134338 | 12 | 293 | 4.8 | 12.9 | 0.00 | 0.00 | 0.00 | 74 | 1020.1 |
| 20260506133316 | 12 | 274 | 4.8 | 12.9 | 0.00 | 0.00 | 0.00 | 74 | 1020.1 |
| 20260506132317 | 12 | 273 | 4.8 | 12.9 | 0.00 | 0.00 | 0.00 | 74 | 1020.1 |
| 20260506131330 | 12 | 301 | 4.8 | 8.0 | 0.00 | 0.00 | 0.00 | 74 | 1020.1 |
| 20260506130358 | 12 | 273 | 1.6 | 9.7 | 0.00 | 0.00 | 0.00 | 74 | 1020.0 |
| 20260506125326 | 12 | 319 | 1.6 | 8.0 | 0.00 | 0.00 | 0.00 | 75 | 1019.9 |
| 20260506124328 | 12 | 264 | 3.2 | 9.7 | 0.00 | 0.00 | 0.00 | 75 | 1019.9 |
| 20260506123327 | 12 | 266 | 3.2 | 8.0 | 0.00 | 0.00 | 0.00 | 75 | 1019.8 |
| 20260506122329 | 12 | 273 | 1.6 | 9.7 | 0.00 | 0.00 | 0.00 | 75 | 1019.8 |
| 20260506121350 | 12 | 302 | 0.0 | 4.8 | 0.00 | 0.00 | 0.00 | 75 | 1019.7 |
| 20260506120316 | 12 | 283 | 0.0 | 3.2 | 0.00 | 0.00 | 0.00 | 75 | 1019.7 |
| 20260506115325 | 12 | 277 | 1.6 | 4.8 | 0.00 | 0.00 | 0.00 | 75 | 1019.6 |
| 20260506114333 | 12 | 267 | 3.2 | 8.0 | 0.00 | 0.00 | 0.00 | 75 | 1019.5 |
| 20260506113336 | 12 | 306 | 3.2 | 11.3 | 0.00 | 0.00 | 0.00 | 75 | 1019.5 |
| 20260506112345 | 12 | 299 | 1.6 | 6.4 | 0.00 | 0.00 | 0.00 | 75 | 1019.5 |
| 20260506111331 | 12 | 294 | 1.6 | 8.0 | 0.00 | 0.00 | 0.00 | 75 | 1019.4 |
| 20260506110316 | 12 | 257 | 4.8 | 12.9 | 0.00 | 0.00 | 0.00 | 75 | 1019.3 |
| 20260506105327 | 12 | 283 | 1.6 | 9.7 | 0.00 | 0.00 | 0.00 | 75 | 1019.3 |
| 20260506104340 | 12 | 273 | 8.0 | 14.5 | 0.00 | 0.00 | 0.00 | 75 | 1019.2 |
| 20260506103315 | 12 | 256 | 6.4 | 12.9 | 0.00 | 0.00 | 0.00 | 75 | 1019.1 |
| 20260506102326 | 12 | 248 | 4.8 | 14.5 | 0.00 | 0.00 | 0.00 | 75 | 1019.1 |
| 20260506101340 | 12 | 248 | 4.8 | 14.5 | 0.00 | 0.00 | 0.00 | 75 | 1019.1 |
| 20260506100317 | 12 | 248 | 4.8 | 12.9 | 0.00 | 0.00 | 0.00 | 75 | 1019.0 |
| 20260506095324 | 12 | 242 | 3.2 | 11.3 | 0.00 | 0.00 | 0.00 | 75 | 1019.1 |
| 20260506094340 | 12 | 263 | 3.2 | 8.0 | 0.00 | 0.03 | 0.00 | 75 | 1019.1 |
| 20260506093316 | 12 | 295 | 3.2 | 9.7 | 0.00 | 0.03 | 0.00 | 75 | 1019.1 |
| 20260506092322 | 12 | 295 | 1.6 | 9.7 | 0.00 | 0.03 | 0.00 | 75 | 1019.1 |
| 20260506091346 | 12 | 298 | 3.2 | 12.9 | 0.00 | 0.03 | 0.00 | 75 | 1019.2 |
| 20260506090329 | 12 | 288 | 3.2 | 12.9 | 0.00 | 0.03 | 0.00 | 75 | 1019.1 |
| 20260506085355 | 12 | 310 | 3.2 | 12.9 | 0.00 | 0.03 | 0.00 | 75 | 1019.2 |
| 20260506084339 | 12 | 289 | 4.8 | 11.3 | 0.00 | 0.10 | 0.00 | 75 | 1019.1 |
| 20260506083320 | 12 | 310 | 3.2 | 8.0 | 0.00 | 0.10 | 0.00 | 75 | 1019.2 |
| 20260506082354 | 12 | 323 | 4.8 | 12.9 | 0.00 | 0.10 | 0.00 | 75 | 1019.1 |
| 20260506081313 | 12 | 286 | 1.6 | 8.0 | 0.00 | 0.10 | 0.00 | 75 | 1019.2 |
| 20260506080343 | 12 | 318 | 1.6 | 8.0 | 0.00 | 0.10 | 0.00 | 75 | 1019.2 |
| 20260506073327 | 12 | 244 | 4.8 | 9.7 | 0.00 | 0.20 | 0.00 | 75 | 1018.8 |
| 20260506072327 | 12 | 266 | 4.8 | 9.7 | 0.00 | 0.20 | 0.00 | 75 | 1018.7 |
| 20260506071333 | 12 | 276 | 1.6 | 9.7 | 0.00 | 0.20 | 0.00 | 75 | 1018.7 |
| 20260506070316 | 12 | 268 | 6.4 | 12.9 | 0.00 | 0.20 | 0.00 | 75 | 1018.6 |
| 20260506062330 | 12 | 262 | 1.6 | 11.3 | 0.00 | 0.36 | 0.20 | 76 | 1018.5 |
| 20260506061335 | 12 | 277 | 8.0 | 16.1 | 0.00 | 0.36 | 0.20 | 76 | 1018.4 |
| 20260506060338 | 12 | 298 | 4.8 | 16.1 | 0.00 | 0.36 | 0.20 | 76 | 1018.3 |
| 20260506051331 | 12 | 256 | 8.0 | 16.1 | 0.00 | 0.43 | 0.20 | 78 | 1018.1 |
| 20260506050317 | 12 | 260 | 8.0 | 16.1 | 0.00 | 0.43 | 0.20 | 77 | 1018.0 |
| 20260506044357 | 12 | 266 | 3.2 | 14.5 | 0.00 | 0.71 | 0.20 | 78 | 1017.8 |
| 20260506043335 | 12 | 316 | 4.8 | 12.9 | 0.00 | 0.71 | 0.20 | 78 | 1017.7 |
| 20260506042332 | 12 | 264 | 3.2 | 11.3 | 0.00 | 0.71 | 0.20 | 78 | 1017.6 |
| 20260506041332 | 12 | 267 | 6.4 | 12.9 | 0.00 | 0.71 | 0.20 | 79 | 1017.5 |
| 20260506040317 | 12 | 264 | 4.8 | 11.3 | 0.00 | 0.71 | 0.20 | 79 | 1017.3 |
| 20260506035323 | 12 | 271 | 1.6 | 11.3 | 0.00 | 0.71 | 0.20 | 79 | 1017.2 |
| 20260506034327 | 12 | 345 | 6.4 | 14.5 | 0.00 | 0.79 | 0.20 | 78 | 1017.1 |
| 20260506033328 | 12 | 345 | 6.4 | 14.5 | 0.00 | 0.79 | 0.20 | 77 | 1016.8 |
| 20260506032316 | 12 | 345 | 9.7 | 19.3 | 0.00 | 0.79 | 0.20 | 77 | 1016.7 |
| 20260506031326 | 13 | 345 | 8.0 | 16.1 | 0.00 | 0.79 | 0.20 | 77 | 1016.6 |
| 20260506030325 | 13 | 345 | 6.4 | 16.1 | 0.00 | 0.79 | 0.20 | 76 | 1016.5 |
| 20260506025326 | 13 | 345 | 8.0 | 16.1 | 0.00 | 0.79 | 0.20 | 76 | 1016.4 |
| 20260506024329 | 13 | 345 | 8.0 | 19.3 | 0.00 | 0.91 | 0.20 | 76 | 1016.3 |
| 20260506023329 | 13 | 259 | 9.7 | 22.5 | 0.00 | 0.91 | 0.20 | 76 | 1016.2 |
| 20260506022318 | 13 | 296 | 14.5 | 25.7 | 0.00 | 0.91 | 0.20 | 75 | 1016.1 |
| 20260506021326 | 13 | 276 | 16.1 | 24.1 | 0.00 | 0.91 | 0.20 | 74 | 1015.9 |
| 20260506020327 | 13 | 264 | 12.9 | 24.1 | 0.00 | 0.91 | 0.20 | 73 | 1015.9 |
| 20260506015340 | 13 | 252 | 12.9 | 27.4 | 0.00 | 0.91 | 0.20 | 74 | 1015.9 |
| 20260506014318 | 13 | 286 | 14.5 | 27.4 | 0.00 | 0.97 | 0.20 | 73 | 1015.7 |
| 20260506013321 | 13 | 248 | 12.9 | 25.7 | 0.00 | 0.97 | 0.20 | 74 | 1015.8 |
| 20260506012356 | 14 | 254 | 14.5 | 24.1 | 0.00 | 0.97 | 0.20 | 73 | 1015.8 |
| 20260506011324 | 14 | 271 | 17.7 | 29.0 | 0.00 | 0.97 | 0.20 | 74 | 1015.9 |
| 20260506010318 | 14 | 274 | 14.5 | 29.0 | 0.00 | 0.97 | 0.20 | 73 | 1015.8 |
| 20260506005338 | 15 | 258 | 17.7 | 25.7 | 0.00 | 0.97 | 0.20 | 73 | 1015.7 |
| 20260506004326 | 15 | 263 | 16.1 | 27.4 | 0.00 | 1.07 | 0.20 | 73 | 1015.6 |
| 20260506003327 | 15 | 249 | 19.3 | 29.0 | 0.00 | 1.07 | 0.20 | 72 | 1015.5 |
| 20260506002325 | 15 | 256 | 16.1 | 30.6 | 0.00 | 1.07 | 0.20 | 72 | 1015.4 |
| 20260506001348 | 15 | 239 | 17.7 | 29.0 | 0.00 | 1.07 | 0.20 | 71 | 1015.3 |
| 20260506000330 | 15 | 260 | 19.3 | 30.6 | 0.00 | 1.07 | 0.20 | 71 | 1015.4 |
| 20260505234326 | 16 | 298 | 20.9 | 32.2 | 0.00 | 1.12 | 0.20 | 70 | 1015.3 |
| 20260505233316 | 16 | 255 | 17.7 | 29.0 | 0.00 | 1.12 | 0.20 | 70 | 1015.3 |
| 20260505232326 | 16 | 257 | 17.7 | 29.0 | 0.00 | 1.12 | 0.20 | 69 | 1015.2 |
| 20260505231316 | 16 | 270 | 14.5 | 25.7 | 0.00 | 1.12 | 0.20 | 69 | 1015.2 |
| 20260505230343 | 17 | 264 | 12.9 | 25.7 | 0.00 | 1.12 | 0.20 | 68 | 1015.2 |
| 20260505225327 | 17 | 258 | 19.3 | 33.8 | 0.00 | 1.12 | 0.20 | 68 | 1015.2 |
| 20260505224317 | 16 | 269 | 16.1 | 24.1 | 0.00 | 1.12 | 0.20 | 68 | 1015.2 |
| 20260505223344 | 17 | 266 | 9.7 | 20.9 | 0.00 | 1.12 | 0.20 | 68 | 1015.2 |
| 20260505222341 | 17 | 265 | 11.3 | 25.7 | 0.00 | 1.12 | 0.20 | 68 | 1015.3 |
| 20260505221345 | 16 | 268 | 11.3 | 24.1 | 0.00 | 1.12 | 0.20 | 69 | 1015.4 |
| 20260505220334 | 17 | 262 | 14.5 | 20.9 | 0.00 | 1.12 | 0.20 | 68 | 1015.4 |
| 20260505215319 | 17 | 258 | 12.9 | 19.3 | 0.00 | 1.12 | 0.20 | 68 | 1015.3 |
| 20260505214332 | 17 | 274 | 8.0 | 19.3 | 0.00 | 1.12 | 0.20 | 69 | 1015.4 |
| 20260505213315 | 16 | 242 | 11.3 | 20.9 | 0.00 | 1.12 | 0.20 | 68 | 1015.5 |
| 20260505212348 | 16 | 252 | 11.3 | 22.5 | 0.00 | 1.12 | 0.20 | 68 | 1015.6 |
| 20260505211325 | 16 | 249 | 11.3 | 16.1 | 0.00 | 1.12 | 0.20 | 69 | 1015.6 |
| 20260505210325 | 16 | 259 | 12.9 | 19.3 | 0.00 | 1.12 | 0.20 | 69 | 1015.8 |
| 20260505205314 | 16 | 255 | 14.5 | 19.3 | 0.00 | 1.12 | 0.20 | 69 | 1015.7 |
| 20260505204321 | 16 | 239 | 6.4 | 20.9 | 0.00 | 1.12 | 0.20 | 69 | 1015.7 |
| 20260505203327 | 16 | 242 | 14.5 | 22.5 | 0.00 | 1.12 | 0.20 | 69 | 1015.6 |
| 20260505202313 | 16 | 252 | 14.5 | 25.7 | 0.00 | 1.12 | 0.20 | 69 | 1015.7 |
| 20260505201319 | 16 | 250 | 11.3 | 22.5 | 0.00 | 1.12 | 0.20 | 70 | 1015.7 |
| 20260505195344 | 16 | 283 | 12.9 | 20.9 | 0.00 | 1.12 | 0.20 | 70 | 1016.0 |
| 20260505194314 | 16 | 260 | 9.7 | 20.9 | 0.00 | 1.12 | 0.20 | 70 | 1016.0 |
| 20260505193338 | 15 | 234 | 11.3 | 17.7 | 0.00 | 1.12 | 0.20 | 72 | 1016.0 |
| 20260505192324 | 15 | 239 | 12.9 | 19.3 | 0.00 | 1.12 | 0.20 | 71 | 1016.0 |
| 20260505191334 | 15 | 251 | 14.5 | 22.5 | 0.00 | 1.12 | 0.20 | 71 | 1016.0 |
| 20260505190332 | 15 | 247 | 11.3 | 24.1 | 0.00 | 1.12 | 0.20 | 72 | 1016.0 |
| 20260505185322 | 15 | 248 | 14.5 | 24.1 | 0.00 | 1.12 | 0.20 | 71 | 1015.9 |
| 20260505184326 | 15 | 257 | 14.5 | 24.1 | 0.00 | 1.12 | 0.20 | 72 | 1015.9 |
| 20260505183333 | 15 | 252 | 11.3 | 20.9 | 0.00 | 1.12 | 0.20 | 71 | 1016.0 |
| 20260505182314 | 14 | 258 | 9.7 | 19.3 | 0.00 | 1.12 | 0.20 | 72 | 1016.0 |
| 20260505181319 | 14 | 278 | 12.9 | 20.9 | 0.00 | 1.12 | 0.20 | 72 | 1015.9 |